Wind_Speed
18 19 18 19 19 19 19 21 21 21 22 22 21 21 21 21 20 20 19 19 20 19 20 24 26 28 29 27 25 24 23 22 21 20 19 18 17 16 14 13 11 9 7
19 19 19 20 20 21 21 22 22 22 22 22 22 22 22 22 21 22 22 21 21 21 20 22 25 28 30 30 29 28 26 25 24 23 22 21 20 19 17 15 13 11 9
20 20 20 20 21 22 22 22 23 23 23 23 22 23 23 22 22 23 23 23 23 23 22 22 24 28 31 32 32 31 30 28 27 26 25 24 23 21 20 18 16 14 12
20 21 21 21 22 22 22 22 22 22 23 23 23 23 23 24 24 24 24 24 24 25 24 25 24 27 31 33 34 34 33 32 31 29 28 27 26 24 22 21 19 17 15
21 21 22 22 22 22 22 22 22 22 22 23 23 23 23 24 25 25 25 25 25 26 26 26 27 26 29 32 34 36 36 35 34 33 32 30 29 27 26 24 22 20 18
19 20 20 21 21 21 21 21 22 22 22 22 23 23 23 24 25 26 26 26 26 26 27 27 28 28 28 31 33 36 37 37 37 36 35 33 32 30 29 27 25 23 21
18 19 19 19 19 20 20 20 20 21 22 22 23 23 24 24 25 26 27 28 28 28 28 28 29 29 30 31 32 34 37 38 38 38 38 36 35 33 32 30 28 26 24
18 18 18 18 18 18 19 19 19 19 20 21 21 22 23 24 24 25 26 27 28 29 29 30 30 31 31 31 32 35 36 38 39 40 40 39 38 36 35 33 32 30 27
18 18 18 18 18 18 18 19 19 19 19 20 20 21 22 24 24 25 26 27 28 29 30 30 31 32 32 32 33 35 36 38 40 41 42 42 41 40 38 36 35 33 31
19 19 20 20 19 19 19 19 19 19 20 20 20 21 22 23 24 25 27 27 28 30 31 31 31 32 33 34 34 36 36 37 39 42 44 44 44 43 42 40 38 36 34
20 21 21 21 21 21 21 21 21 21 21 22 22 22 23 24 25 26 27 28 29 30 31 32 32 33 34 35 36 36 38 38 39 40 42 45 46 46 45 44 41 38 37
22 22 22 22 23 23 23 23 24 24 24 24 25 25 25 25 27 28 29 30 31 32 33 33 34 35 36 36 37 38 38 39 40 40 41 43 45 46 47 47 45 42 39
23 23 23 23 24 24 25 25 26 27 27 28 28 29 29 29 29 29 30 31 33 34 35 35 36 37 38 38 39 40 40 40 40 41 41 42 43 45 46 48 47 45 43
24 24 24 25 25 25 26 27 28 29 30 31 31 32 32 32 32 32 33 33 34 35 37 38 39 39 40 40 40 41 42 42 43 42 42 42 43 44 45 46 48 48 46
25 25 25 25 26 27 28 29 30 31 32 33 33 34 35 35 36 36 36 36 36 37 38 39 41 41 41 42 42 42 42 43 43 44 43 44 45 46 46 47 48 48 48
25 26 26 27 28 29 30 31 33 34 35 35 36 36 37 38 38 39 39 40 40 39 39 40 42 43 43 43 43 43 43 44 44 45 45 45 45 46 47 47 48 48 48
26 27 28 29 31 32 33 34 35 36 37 38 39 39 39 40 41 41 41 42 42 42 41 41 43 44 44 44 44 44 44 45 45 46 47 47 46 45 46 47 47 47 48
27 28 30 32 33 35 36 37 38 39 40 40 41 42 42 42 42 42 43 43 43 43 43 42 43 44 45 45 45 46 46 45 45 46 47 48 47 46 46 47 46 47 48
29 31 33 34 36 38 39 40 41 42 42 43 43 43 42 42 41 42 42 42 42 42 42 42 42 44 45 46 46 46 47 46 46 46 46 47 48 47 47 46 47 48 49
32 34 35 37 39 41 42 43 44 44 44 44 43 42 41 40 40 39 39 40 40 41 41 41 41 42 44 45 45 46 46 46 46 46 45 45 47 47 47 47 47 48 49
34 36 37 39 41 43 44 45 45 45 44 43 42 40 39 38 37 37 36 37 38 39 40 40 40 41 42 43 44 45 46 46 46 46 45 45 45 47 47 47 46 47 48
36 38 40 42 44 46 46 46 46 44 43 41 40 38 37 36 36 35 35 35 36 36 37 38 39 39 40 41 43 44 45 46 46 47 47 46 45 45 46 48 48 47 48
39 41 43 45 46 48 48 47 46 44 42 40 38 37 36 35 34 33 33 33 34 34 36 36 37 38 39 40 41 42 43 45 45 45 46 46 45 44 44 46 47 48 48
43 45 45 46 48 49 48 47 45 43 41 39 37 35 34 34 33 32 32 32 33 33 34 35 35 36 38 39 41 41 42 43 44 45 46 45 45 44 44 43 44 45 46
45 46 46 48 49 49 48 47 45 42 40 37 35 34 34 33 33 32 33 32 32 32 33 34 34 35 36 38 40 41 42 43 43 44 46 46 45 44 43 42 42 44 45
47 47 47 49 50 49 48 46 44 41 39 36 35 34 34 32 32 32 33 32 32 33 33 33 34 34 35 37 38 40 41 43 43 43 45 46 45 45 44 43 43 44 44
Wind_Direction
294 293 291 290 290 288 284 280 276 275 274 274 273 272 269 268 268 267 269 267 263 258 249 241 235 230 227 226 226 225 224 224 223 221 219 217 216 214 212 211 210 208 202
294 295 292 291 291 289 286 283 281 279 275 275 274 272 270 267 267 266 265 263 261 258 254 245 238 233 229 227 227 227 225 225 224 224 223 222 220 219 218 218 218 217 215
295 294 293 292 290 288 287 286 283 282 279 276 274 271 269 268 266 264 262 261 259 257 253 248 243 236 231 228 228 228 227 226 226 226 226 225 224 223 223 223 222 222 221
298 297 296 295 292 290 288 286 284 284 281 278 275 273 269 267 265 264 262 260 258 255 253 250 247 240 234 231 229 228 228 228 228 228 227 227 227 227 227 227 226 226 225
300 299 297 295 293 291 289 286 285 282 280 278 276 274 271 268 265 263 260 259 258 254 252 252 249 244 239 236 232 230 229 229 229 229 229 229 229 229 229 229 229 229 229
303 302 299 296 294 292 290 288 286 283 281 279 277 274 271 268 265 263 261 260 259 256 253 252 250 246 243 240 236 232 231 230 230 230 230 230 230 230 231 230 231 231 231
309 308 305 301 299 297 294 291 287 285 283 280 278 276 273 270 267 264 263 261 260 257 254 251 249 248 246 243 239 235 233 232 232 231 231 231 231 231 231 232 231 231 232
318 316 312 309 306 304 301 297 293 289 286 283 280 277 275 272 270 268 264 262 260 258 256 253 250 249 247 245 241 238 236 235 234 233 233 232 232 232 232 233 233 233 233
322 321 318 316 313 309 306 303 299 296 292 290 286 282 279 275 272 269 266 264 261 260 258 255 253 252 248 246 242 240 239 238 236 236 235 234 233 233 233 234 235 234 234
322 320 319 317 315 313 311 309 306 302 299 296 292 288 284 280 277 273 269 266 263 261 260 257 255 254 250 247 244 242 241 239 238 237 236 235 234 234 233 233 234 235 235
322 319 318 315 313 311 310 309 307 304 302 299 297 293 290 286 282 278 274 270 266 263 260 259 256 254 250 248 245 243 242 241 240 239 237 235 235 234 233 233 233 234 234
322 318 316 313 311 310 309 307 306 304 301 299 297 295 293 289 285 281 277 274 270 267 263 259 257 254 252 249 246 244 243 241 240 240 240 238 237 236 233 233 233 233 234
322 319 316 314 311 309 308 306 305 303 301 299 297 295 293 290 287 284 280 276 272 269 266 262 258 256 253 251 248 245 244 242 241 240 240 240 238 235 234 233 233 233 234
321 320 318 316 314 312 309 307 305 303 301 299 297 295 292 290 288 285 282 278 275 271 268 264 261 257 255 252 251 247 245 244 243 241 241 240 238 236 234 232 232 232 231
320 319 318 316 315 314 312 310 307 304 302 299 296 294 291 289 287 285 282 279 276 273 269 266 263 259 256 253 251 248 245 244 243 242 241 241 238 236 235 233 232 231 231
320 320 320 319 317 315 313 312 309 307 304 301 297 294 291 288 285 283 280 278 276 273 269 266 264 261 258 254 251 249 245 243 242 241 241 241 240 237 235 235 233 232 230
320 320 320 320 319 318 316 313 311 309 306 303 299 295 291 288 285 281 279 276 274 272 269 266 264 262 259 256 252 249 247 244 242 241 240 240 239 237 235 234 232 231 230
320 320 320 320 319 318 316 315 312 310 307 304 300 296 292 288 285 281 278 275 272 270 268 265 263 261 259 256 253 250 247 245 243 241 241 240 239 238 236 234 234 232 231
319 320 320 320 320 319 318 316 314 311 309 305 302 298 294 289 284 281 277 275 272 269 267 264 262 260 258 256 253 250 247 245 243 241 241 240 239 239 237 235 235 233 233
318 318 320 321 321 320 319 318 315 313 310 306 303 299 294 290 286 282 279 275 272 269 266 264 262 260 258 255 253 249 246 244 242 241 240 240 239 238 237 235 234 233 233
318 318 319 321 322 322 321 319 317 314 311 307 303 300 295 291 288 283 280 276 273 270 267 265 262 260 258 255 252 249 246 243 241 240 239 239 239 238 236 235 234 232 231
317 318 319 321 322 322 321 320 318 315 311 308 304 300 297 293 288 284 280 277 274 271 268 265 263 260 258 255 251 248 246 242 240 238 237 238 238 237 236 236 234 231 229
316 317 318 320 321 321 321 320 318 316 312 308 305 301 297 294 289 284 281 279 276 273 270 266 263 260 257 254 251 248 245 241 239 236 235 235 235 235 235 234 234 232 230
315 318 318 320 321 321 320 320 318 316 312 309 305 302 298 294 290 286 283 281 278 275 272 268 264 261 257 253 251 248 244 241 238 235 234 233 232 232 233 232 233 232 230
316 317 319 320 321 321 320 319 317 315 312 309 305 302 299 295 291 288 285 283 280 277 274 270 266 262 259 255 251 247 244 240 237 235 234 232 231 230 230 230 231 232 229
316 317 318 320 321 321 320 318 316 313 311 309 306 303 300 296 293 290 287 284 281 278 274 271 268 263 259 255 251 247 244 240 236 234 233 231 229 229 229 229 230 231 229
Height
5875 5874 5873 5873 5872 5871 5871 5870 5870 5870 5870 5870 5870 5871 5871 5871 5873 5873 5874 5876 5877 5878 5879 5881 5884 5886 5889 5892 5895 5898 5900 5903 5906 5908 5910 5913 5915 5917 5919 5921 5923 5924 5925
5871 5870 5869 5868 5868 5867 5866 5865 5865 5865 5865 5865 5865 5866 5866 5867 5868 5869 5870 5871 5872 5873 5875 5877 5878 5881 5884 5887 5890 5894 5897 5900 5902 5905 5908 5910 5913 5915 5917 5919 5921 5923 5925
5867 5866 5865 5864 5863 5862 5862 5861 5860 5860 5860 5860 5860 5860 5861 5862 5863 5863 5864 5866 5867 5868 5870 5872 5873 5875 5878 5882 5885 5889 5892 5895 5898 5901 5904 5907 5910 5912 5915 5917 5919 5922 5923
5862 5861 5860 5860 5858 5857 5857 5856 5855 5855 5854 5854 5854 5854 5855 5856 5857 5858 5859 5860 5861 5863 5864 5866 5868 5870 5873 5876 5880 5883 5887 5890 5894 5897 5900 5903 5906 5909 5912 5915 5917 5919 5921
5858 5857 5856 5855 5853 5853 5852 5851 5850 5850 5849 5849 5849 5849 5850 5850 5851 5852 5853 5854 5855 5857 5859 5860 5862 5864 5867 5870 5874 5877 5881 5885 5888 5892 5895 5899 5902 5905 5908 5911 5914 5917 5919
5854 5853 5852 5850 5849 5848 5847 5846 5845 5844 5844 5843 5843 5843 5844 5844 5845 5846 5847 5848 5849 5851 5852 5854 5856 5858 5861 5864 5867 5871 5874 5878 5882 5886 5890 5893 5897 5901 5904 5907 5910 5913 5916
5851 5849 5848 5846 5845 5843 5842 5841 5840 5839 5838 5838 5838 5838 5838 5838 5839 5840 5840 5842 5843 5844 5845 5848 5850 5852 5855 5857 5860 5864 5867 5871 5875 5879 5883 5887 5891 5895 5899 5902 5906 5909 5912
5847 5846 5844 5842 5841 5839 5838 5836 5835 5834 5833 5833 5832 5832 5832 5833 5833 5833 5834 5835 5836 5837 5839 5840 5843 5845 5847 5850 5853 5857 5860 5864 5868 5872 5876 5881 5885 5889 5893 5897 5900 5904 5907
5845 5843 5841 5839 5837 5836 5834 5833 5831 5830 5829 5828 5827 5827 5826 5826 5827 5827 5827 5828 5829 5830 5831 5833 5835 5837 5839 5843 5846 5849 5853 5856 5860 5864 5868 5873 5877 5882 5886 5890 5894 5898 5902
5842 5839 5837 5835 5834 5832 5830 5829 5827 5825 5824 5823 5822 5821 5820 5820 5820 5820 5820 5821 5821 5823 5824 5825 5828 5829 5832 5835 5838 5841 5844 5848 5852 5856 5860 5864 5869 5874 5879 5883 5887 5892 5895
5838 5836 5834 5832 5830 5828 5826 5824 5823 5821 5819 5818 5817 5816 5815 5814 5813 5813 5813 5813 5814 5815 5816 5818 5820 5821 5823 5826 5829 5833 5836 5840 5843 5847 5851 5856 5860 5865 5870 5875 5880 5884 5889
5835 5833 5830 5828 5826 5824 5822 5820 5818 5816 5814 5812 5811 5809 5808 5807 5806 5805 5805 5805 5805 5806 5807 5809 5811 5812 5814 5817 5820 5824 5827 5830 5834 5838 5842 5846 5851 5856 5861 5866 5872 5877 5881
5831 5829 5826 5824 5821 5819 5817 5814 5812 5810 5808 5806 5804 5802 5801 5799 5798 5798 5797 5797 5797 5797 5798 5799 5801 5803 5805 5808 5811 5814 5817 5820 5824 5829 5833 5837 5841 5846 5852 5857 5863 5868 5873
5827 5824 5821 5819 5816 5814 5811 5809 5806 5803 5801 5798 5796 5794 5792 5791 5789 5788 5788 5787 5787 5788 5788 5789 5790 5792 5794 5797 5801 5804 5807 5811 5815 5819 5823 5827 5832 5837 5842 5847 5853 5859 5864
5822 5820 5817 5814 5811 5808 5805 5802 5799 5796 5793 5790 5788 5785 5783 5781 5779 5778 5777 5777 5777 5777 5778 5778 5779 5781 5784 5786 5790 5793 5796 5800 5804 5808 5813 5817 5822 5827 5832 5837 5843 5849 5855
5818 5815 5811 5808 5805 5802 5799 5795 5791 5788 5785 5781 5778 5776 5773 5771 5769 5767 5766 5765 5765 5765 5766 5766 5767 5769 5772 5775 5778 5782 5785 5789 5793 5798 5802 5807 5811 5816 5822 5827 5833 5839 5845
5813 5810 5806 5802 5799 5795 5791 5787 5783 5779 5775 5771 5767 5765 5762 5759 5757 5755 5754 5753 5752 5752 5753 5755 5755 5756 5759 5762 5765 5769 5773 5777 5782 5786 5791 5796 5801 5806 5811 5817 5822 5828 5834
5808 5804 5800 5796 5792 5787 5782 5778 5773 5768 5764 5760 5756 5752 5749 5746 5744 5742 5740 5740 5739 5739 5740 5742 5742 5743 5745 5748 5752 5756 5761 5765 5770 5775 5780 5784 5789 5795 5800 5806 5812 5818 5824
5801 5797 5793 5788 5784 5779 5773 5768 5763 5758 5753 5748 5743 5739 5736 5733 5731 5728 5727 5726 5725 5725 5726 5728 5730 5731 5733 5735 5739 5743 5748 5753 5758 5763 5768 5773 5778 5784 5789 5795 5801 5808 5814
5795 5790 5785 5780 5775 5770 5764 5758 5752 5747 5741 5736 5731 5726 5723 5720 5717 5715 5714 5713 5712 5713 5713 5714 5716 5718 5720 5722 5726 5730 5735 5740 5746 5751 5756 5761 5767 5772 5778 5785 5791 5796 5803
5787 5782 5777 5772 5766 5760 5754 5748 5741 5735 5729 5724 5719 5714 5710 5708 5705 5703 5702 5701 5700 5700 5700 5701 5703 5705 5707 5709 5713 5717 5722 5727 5733 5739 5744 5750 5756 5762 5767 5773 5779 5785 5791
5779 5774 5768 5762 5756 5749 5743 5736 5730 5724 5718 5712 5707 5703 5699 5696 5694 5692 5690 5689 5689 5689 5689 5689 5691 5693 5695 5697 5700 5704 5709 5715 5722 5727 5732 5738 5744 5750 5756 5762 5768 5774 5781
5771 5765 5759 5753 5746 5739 5732 5725 5719 5713 5707 5701 5697 5692 5688 5685 5683 5682 5680 5679 5678 5677 5677 5678 5679 5681 5682 5685 5688 5692 5696 5702 5709 5714 5720 5727 5733 5739 5745 5750 5757 5763 5770
5761 5755 5749 5743 5736 5729 5722 5715 5708 5702 5696 5691 5686 5682 5678 5675 5673 5671 5670 5669 5667 5667 5666 5666 5668 5669 5670 5672 5676 5680 5684 5690 5697 5702 5708 5715 5722 5728 5734 5739 5746 5752 5759
5751 5745 5739 5732 5726 5718 5711 5704 5698 5692 5686 5681 5676 5672 5668 5666 5663 5661 5659 5658 5657 5656 5655 5655 5656 5657 5659 5661 5664 5668 5673 5678 5685 5691 5697 5704 5710 5716 5723 5729 5735 5742 5748
5740 5734 5728 5722 5715 5708 5701 5694 5687 5682 5677 5672 5667 5663 5659 5656 5653 5651 5649 5647 5646 5645 5644 5644 5645 5646 5647 5649 5652 5656 5660 5666 5672 5679 5685 5692 5699 5705 5712 5719 5725 5731 5738